This is the latest recevied weather packets stored in our database for station/object K4ROM-1. If no packets are shown the sender has not sent any weather packets the latest 10 day(s).
| Time | Temp. | Humidity | Pressure | Rain* | Wind** | Luminosity | Snow |
|---|---|---|---|---|---|---|---|
| 1777854603 | 15° C | 50% | 1016.8 hPa | 0 mm | 0 m/s | - | - |
| 1777854004 | 15° C | 48% | 1016.6 hPa | 0 mm | 0 m/s | - | - |
| 1777853403 | 16.11° C | 46% | 1016.7 hPa | 0 mm | 0 m/s | - | - |
| 1777852803 | 16.67° C | 43% | 1016.6 hPa | 0 mm | 0 m/s | - | - |
| 1777852202 | 17.78° C | 41% | 1016.6 hPa | 0 mm | 0 m/s | - | - |
| 1777851603 | 18.33° C | 38% | 1017 hPa | 0 mm | 0 m/s | - | - |
| 1777851003 | 18.89° C | 36% | 1016.6 hPa | 0 mm | 0.45 m/s, 246° | - | - |
| 1777850403 | 18.89° C | 35% | 1016.6 hPa | 0 mm | 0 m/s | - | - |
| 1777849803 | 18.89° C | 36% | 1016.7 hPa | 0 mm | 0 m/s | - | - |
| 1777849203 | 18.89° C | 36% | 1016.6 hPa | 0 mm | 0 m/s | - | - |
| 1777848603 | 18.89° C | 34% | 1016.9 hPa | 0 mm | 1.34 m/s, 279° | - | - |
| 1777848003 | 19.44° C | 36% | 1016.9 hPa | 0 mm | 0 m/s | - | - |
| 1777847403 | 20° C | 33% | 1016.8 hPa | 0 mm | 0.89 m/s, 256° | - | - |
| 1777846803 | 20° C | 34% | 1016.9 hPa | 0 mm | 0 m/s | - | - |
| 1777846203 | 20° C | 34% | 1016.9 hPa | 0 mm | 1.34 m/s, 242° | - | - |
| 1777845603 | 20° C | 33% | 1017 hPa | 0 mm | 0 m/s | - | - |
| 1777845003 | 20° C | 32% | 1017.1 hPa | 0 mm | 0.45 m/s, 13° | - | - |
| 1777844403 | 20° C | 33% | 1016.8 hPa | 0 mm | 0.89 m/s, 344° | - | - |
| 1777843803 | 20.56° C | 33% | 1016.9 hPa | 0 mm | 1.34 m/s, 246° | - | - |
| 1777843203 | 19.44° C | 34% | 1017.2 hPa | 0 mm | 0.45 m/s, 296° | - | - |
| 1777842603 | 19.44° C | 34% | 1017.3 hPa | 0 mm | 0.45 m/s, 315° | - | - |
| 1777842003 | 20° C | 33% | 1017.3 hPa | 0 mm | 0.45 m/s, 353° | - | - |
| 1777841403 | 19.44° C | 37% | 1017.5 hPa | 0 mm | 0.89 m/s, 244° | - | - |
| 1777840803 | 20° C | 35% | 1017.5 hPa | 0 mm | 0.45 m/s, 25° | - | - |
| 1777840203 | 19.44° C | 34% | 1017.3 hPa | 0 mm | 0 m/s | - | - |
* Rain latest hour (hover to see other rain measurements)
** Current wind speed in m/s (hover to see current wind gust speed)